Regional Weather Roundup
Issued by NWS

Home | Current Version | Previous Version | Graphics & Text | Print | Product List | Glossary On
Versions: 1 2 3 4 5 6 7 8 9 10 11 12 13 14 15 16 17 18 19 20 21 22 23 24 25 26 27 28 29 30 31 32 33 34 35 36 37 38 39 40 41 42 43 44 45 46 47 48 49 50
000
ASUS43 KIND 201000
RWRIN

WEATHER ROUNDUP FOR INDIANA
NATIONAL WEATHER SERVICE INDIANAPOLIS IN
600 AM EDT SUN AUG 20 2017

NOTE: "FAIR" INDICATES FEW OR NO CLOUDS BELOW 12,000 FEET WITH NO
SIGNIFICANT WEATHER AND/OR OBSTRUCTIONS TO VISIBILITY.

* - STATION DOES NOT REPORT WEATHER SUCH AS PRECIPITATION OR FOG.

+ - STATION NOT QUALITY CONTROLLED BY THE NATIONAL WEATHER SERVICE.
    USE DATA WITH CAUTION...ESPECIALLY DEWPOINT AND RELATIVE
    HUMIDITY OBSERVATIONS.

INZ001>003-010>013-019-020-201100-
NORTHWEST INDIANA

CITY           SKY/WX    TMP DP  RH WIND       PRES   REMARKS
GARY /AIRPORT/ CLEAR     64  59  82 VRB3      30.02R
MONTICELLO +   PTCLDY    64  61  91 CALM      30.01S
VALPARAISO     CLEAR     58  57  97 NE3       30.03R

$$

LMZ046-743>745-201100-
SOUTHERN LAKE MICHIGAN

STATION/POSITION TIME  TEMP    WIND        PRES    WAVE
                       AIR SEA DIR/SP/G            HT
                 (UTC) (F)     (DEG/KT/KT) (MB)    (FT)
BURNS HARBOR     0940   69     140/  6/ 11 1016.6S
MICHIGAN CITY    0930   66     130/  7/  9   N/A
5NW MICH CITY    0950   69 74  160/ 10/ 12   N/A     1

$$

INZ004-005-014>016-021>024-201100-
NORTH CENTRAL INDIANA

CITY           SKY/WX    TMP DP  RH WIND       PRES   REMARKS
GOSHEN         CLEAR     57  54  89 CALM      30.03S
SOUTH BEND     CLEAR     57  57 100 CALM      30.04R

$$

INZ006>009-017-018-025>027-201100-
NORTHEAST INDIANA

CITY           SKY/WX    TMP DP  RH WIND       PRES   REMARKS
FORT WAYNE     CLEAR     59  57  93 CALM      30.05S

$$

INZ028-029-035-036-043>045-051>053-201100-
WEST CENTRAL INDIANA

CITY           SKY/WX    TMP DP  RH WIND       PRES   REMARKS
LAFAYETTE      CLEAR     63  62  97 CALM      30.01R
TERRE HAUTE    FOG       62  60  93 CALM      30.00S VSB 1

$$

INZ030>032-037>040-046>048-054>057-064-065-201100-
CENTRAL INDIANA

CITY           SKY/WX    TMP DP  RH WIND       PRES   REMARKS
GREENWOOD *+   PTCLDY    67  62  85 CALM      30.03S
INDIANAPOLIS   CLEAR     69  63  81 E6        30.01R
-EAGLE CREEK   CLEAR     68  61  78 E3        30.01S
KOKOMO +       CLEAR     61  59  93 E5        30.03F
MT COMFORT *+  PTCLDY    63  61  94 CALM      30.03S
SHELBYVILLE    CLEAR     66  62  87 NE3       30.02R

$$

INZ033-034-041-042-049-050-058-059-201100-
EAST CENTRAL INDIANA

CITY           SKY/WX    TMP DP  RH WIND       PRES   REMARKS
MUNCIE         PTCLDY    67  59  75 SE5       30.04S
RICHMOND +     CLEAR     61  61 100 E7        30.07R

$$

INZ060-061-067>069-081>083-085>088-201100-
SOUTHWEST INDIANA

CITY           SKY/WX    TMP DP  RH WIND       PRES   REMARKS
EVANSVILLE     CLOUDY    69  67  93 CALM      30.01R
HUNTINGBURG +  FOG       66  66 100 SE3       30.02R VSB 3/4

$$

INZ062-063-066-070>080-084-089>092-201100-
SOUTH CENTRAL AND SOUTHEAST INDIANA

CITY           SKY/WX    TMP DP  RH WIND       PRES   REMARKS
BLOOMINGTON    CLEAR     63  61  93 CALM      30.02R FOG
MADISON *+     CLEAR     68  64  88 CALM      30.05S
SEYMOUR +      CLEAR     66  66 100 CALM      30.02S FOG

$$





USA.gov is the U.S. government's official web portal to all federal, state and local government web resources and services.